Skip Page Navigation
NASA JPL Caltech
NASA Logo - Jet Propulsion Laboratory + View the NASA Portal
+ Center for Near-Earth Object Studies
JPL Home Earth Solar System Stars & Galaxies Technology
JPL Solar System Dynamics
BODIES ORBITS EPHEMERIDES TOOLS PHYSICAL DATA DISCOVERY FAQ SITE MAP
JPL Small-Body Database Browser
Search: [ help ]  
193444 (2000 WL135)
Classification: Main-belt Asteroid          SPK-ID: 2193444
Ephemeris | Orbit Diagram | Orbital Elements | Mission Design | Physical Parameters | Discovery Circumstances ]

[ show orbit diagram ]
Orbital Elements at Epoch 2459000.5 (2020-May-31.0) TDB
Reference: JPL 17 (heliocentric ecliptic J2000)
 Element Value Uncertainty (1-sigma)   Units 
e .2406824499002267 5.5958e-08  
a 2.548782540512291 2.179e-08 au
q 1.935335314398869 1.5109e-07 au
i 7.587357338857949 6.0433e-06 deg
node 27.00606399084129 3.4563e-05 deg
peri 336.0472738151077 3.791e-05 deg
M 348.899032617825 1.7022e-05 deg
tp 2459046.330640627243
(2020-Jul-15.83064063)
7.0362e-05 TDB
period 1486.269624780667
4.07
1.906e-05
5.218e-08
d
yr
n .2422171549479968 3.1061e-09 deg/d
Q 3.162229766625713 2.7034e-08 au
  Orbit Determination Parameters
   # obs. used (total)      629  
   data-arc span      9199 days (25.19 yr)  
   first obs. used      1994-04-03  
   last obs. used      2019-06-10  
   planetary ephem.      DE431  
   SB-pert. ephem.      SB431-N16  
   condition code      0  
   norm. resid. RMS      .53341  
   source      ORB  
   producer      Otto Matic  
   solution date      2020-Feb-24 22:03:48  

Additional Information
 Earth MOID = .936341 au 
 Jupiter MOID = 2.30018 au 
 T_jup = 3.388 
[ show covariance matrix ]

Ephemeris | Orbit Diagram | Orbital Elements | Mission Design | Physical Parameters | Discovery Circumstances ]

Physical Parameter Table
Parameter Symbol Value Units Sigma Reference Notes
absolute magnitude H 15.0   n/a MPO338471  

193444 (2000 WL135)          Discovered 2000-Nov-19 by LINEAR at Socorro
Reference: 20081113/Numbers.arcLast Updated: 2008-11-17
Ephemeris | Orbit Diagram | Orbital Elements | Mission Design | Physical Parameters | Discovery Circumstances ]
ABOUT SSD CREDITS/AWARDS PRIVACY/COPYRIGHT GLOSSARY LINKS
FirstGov 2020-Aug-15 11:08 UT
(server date/time)  
NASA Home Page
Site Manager:   Ryan S. Park
Webmaster  Alan B. Chamberlin